Regional Weather Roundup
Issued by NWS Green Bay, WI

Home | Current Version | Previous Version | Text Only | Print | Product List | Glossary On
Versions: 1 2 3 4 5 6 7 8 9 10 11 12 13 14 15 16 17 18 19 20 21 22 23 24 25 26 27 28 29 30 31 32 33 34 35 36 37 38 39 40 41 42 43 44 45 46 47 48 49 50
000
ASUS43 KGRB 130811
RWRGRB

NORTH-CENTRAL AND NORTHEAST WISCONSIN REGIONAL WEATHER ROUNDUP
NATIONAL WEATHER SERVICE GREEN BAY WI
200 AM CST SAT FEB 13 2016

WIZ005-009-010>012-018-019-130900-
NORTH CENTRAL WISCONSIN

CITY           SKY/WX    TMP DP  RH WIND       PRES   REMARKS
IRONWOOD       CLOUDY     1  -2  85 NW8       30.43R VSB 1   WCI -12
MANITOWISH WTR CLOUDY    -6 -12  78 NW12G17   30.38R WCI -25
ARBOR VITAE    CLEAR     -4  -9  76 NW6       30.39R WCI -16
EAGLE RIVER    CLEAR     -7 -13  76 W6        30.34R WCI -20
LAND O LAKES   LGT SNOW  -1  -6  80 NW8       30.35R WCI -16
RHINELANDER    CLEAR     -9 -15  75 W9        30.38R WCI -26
PHILLIPS       CLOUDY   -10 -16  77 CALM      30.45R
ANTIGO         CLEAR     -8 -14  72 W14       30.39R WCI -28
TOMAHAWK       CLEAR     -8 -15  72 NW9       30.43R WCI -25
MERRILL        CLEAR     -5 -14  65 NW6       30.46R WCI -18
$$

WIZ013-073-130900-
NORTHEAST WISCONSIN

CITY           SKY/WX    TMP DP  RH WIND       PRES   REMARKS
IRON MOUNTAIN  CLEAR    -12 -18  74 CALM      30.36R
MARINETTE      CLEAR     -2  -9  71 W7        30.42R WCI -16
OCONTO         CLEAR     -3 -12  66 W7        30.46R WCI -17
$$

WIZ017-030-035>037-045-130900-
CENTRAL WISCONSIN

CITY           SKY/WX    TMP DP  RH WIND       PRES   REMARKS
MEDFORD        CLOUDY    -8 -18  61 NW12      30.45R WCI -27
WAUSAU         CLEAR     -3 -15  56 NW12G22   30.45R WCI -21
MOSINEE        CLEAR     -4 -15  59 NW9       30.47R WCI -20
MARSHFIELD     CLOUDY    -5 -19  51 NW10      30.48R WCI -23
WISC RAPIDS    CLOUDY    -4 -18  51 NW8       30.52R WCI -19
STEVENS POINT  CLEAR     -5 -17  56 NW5       30.48R WCI -16
WAUPACA        PTCLDY     0 -15  47 W9        30.50R WCI -15
SHAWANO        PTCLDY    -1 -12  58 W7        30.47R WCI -14
CLINTONVILLE   CLEAR     -2 -15  55 W9        30.48R WCI -18
WAUTOMA        CLOUDY    -4 -18  51 W10       30.52R WCI -21
$$

WIZ038-039-048-051-130900-
FOX VALLEY

CITY           SKY/WX    TMP DP  RH WIND       PRES   REMARKS
NWS GREEN BAY  CLEAR     -3 -13  62 W10       30.48R WCI -20
APPLETON       CLEAR     -2 -15  55 W14       30.45R WCI -21
OSHKOSH        CLEAR     -1 -14  53 NW10      30.48R WCI -17
FOND DU LAC    PTCLDY     0 -14  51 NW12      30.49R WCI -17
$$

WIZ022-050-052-130900-
EAST CENTRAL WISCONSIN

CITY           SKY/WX    TMP DP  RH WIND       PRES   REMARKS
EPHRAIM        FAIR       1  -7  71 NW10G17   30.38R WCI -16
STURGEON BAY   CLEAR     -2 -11  65 W13       30.43R WCI -21
MANITOWOC      CLEAR      0 -11  59 NW15G23   30.46R WCI -19
SHEBOYGAN      CLEAR      0 -12  57 NW10      30.46R WCI -16
$$

LMZ563-521-522-541>543-130900-
LAKESHORE

STATION/POSITION TIME  TEMP    WIND        PRES    VSBY  WAVE
                       AIR SEA DIR/SP/G                  HT/PER
                 (UTC) (F)     (DEG/KT/KT) (MB)    (MI)  (FT/S)
SHEBOYGAN LKSHOR 0800    1     290/ 15/ 19 1033.7R
KEWAUNEE LKSHORE 0700    0     300/  7/ 12 1029.4S
ALGOMA MARINA    0711          300/  7/ 10   N/A
SISTER BAY LKSHO 0649    2     320/ 19/ 23   N/A
CHAMBERS ISLAND  0700    1     270/  6/ 12 1029.5R
MENOMINEE LKSHOR 0700    0     260/  8     1029.0R
$$



USA.gov is the U.S. government's official web portal to all federal, state and local government web resources and services.